[[{"header":{"parameterUnit":"m.s-1","parameterCategory":1,"la1":30.2991,"la2":30.254,"lo1":-89.0895,"lo2":-89.0444,"dy":0.0017,"dx":0.0017,"nx":28,"ny":28,"refTime":"2024-06-25T09:00:00:Z","depth":0,"parameterNumber":2,"parameterNumberName":"U-component_of_WINDS"},"data":[0,0,0,0,0,0,0,0,0,0,0,0,0,0,0,0,0,0,0,0,0,0,0,0,0,0,0,0,0,0,0,0,0,0,0,0,0,0,0,0,0,0,0,0,0,0,0,0,0,0,0,0,0,0,0,0,0,0,-0.982,-0.982,0,-0.9764,-0.9763,-0.9762,-0.972,-0.972,-0.972,-0.9719,-0.9656,-0.9654,-0.9653,0,0,0,0,0,0,0,0,0,0,0,0,0,-0.9889,-0.9888,-0.9821,-0.982,-0.9819,-0.9764,-0.9763,-0.9762,-0.972,-0.972,-0.9719,-0.9719,-0.9656,-0.9655,-0.9653,0,0,0,0,0,0,0,0,0,0,0,0,0,-0.9848,-0.9887,-0.9821,-0.9792,-0.9789,-0.9764,-0.9763,-0.9762,-0.972,-0.972,-0.9719,-0.9719,-0.9657,-0.9655,-0.9653,-0.9651,0,0,-0.9646,-0.9646,0,0,0,0,0,0,0,0,-0.985,-0.9845,-0.9797,-0.9794,-0.979,-0.9749,-0.9763,-0.9724,-0.972,-0.9746,-0.9719,-0.9719,-0.9687,-0.9682,-0.9672,-0.9648,-0.9645,-0.9646,-0.9645,-0.9644,-0.9644,0,0,0,0,0,0,0,-0.9853,-0.9848,-0.9798,-0.9796,-0.9792,-0.978,-0.9774,-0.9756,-0.972,-0.9744,-0.9741,-0.9735,-0.9685,-0.9675,-0.9671,-0.9644,-0.9646,-0.9644,-0.9643,-0.9642,-0.9613,-0.9614,0,0,0,0,0,0,-0.9861,-0.985,-0.98,-0.9796,-0.982,-0.9779,-0.9772,-0.9762,-0.972,-0.9713,-0.9735,-0.9733,-0.9678,-0.9673,-0.9668,-0.9662,-0.9644,-0.9642,-0.9641,-0.9613,-0.9613,-0.9614,0,0,0,0,0,0,-0.9863,-0.9857,-0.9802,-0.9822,-0.9814,-0.9779,-0.9768,-0.9761,-0.9751,-0.9714,-0.9706,-0.9732,-0.9678,-0.9671,-0.9655,-0.9659,-0.9641,-0.9639,-0.9612,-0.9613,-0.9613,-0.965,0,0,0,0,0,0,-0.9865,-0.9858,-0.9858,-0.9823,-0.9814,-0.9792,-0.9768,-0.9761,-0.9748,-0.9745,-0.9708,-0.9702,-0.9677,-0.9659,-0.9653,-0.9656,-0.9638,-0.9612,-0.9612,-0.9613,-0.9648,-0.9652,-0.9655,0,0,0,0,0,-0.9868,-0.9869,-0.9858,-0.9852,-0.9813,-0.9792,-0.9786,-0.9759,-0.9749,-0.9748,-0.9723,-0.9703,-0.966,-0.9657,-0.9651,-0.9653,-0.9611,-0.9612,-0.9613,-0.9647,-0.9651,-0.9655,0,0,0,0,0,0,-0.9904,-0.9864,-0.9851,-0.9842,-0.9821,-0.9785,-0.9783,-0.9765,-0.9745,-0.9742,-0.9707,-0.9699,-0.9687,-0.9669,-0.9666,-0.9648,-0.9633,-0.9633,-0.9661,-0.9665,-0.9668,-0.9672,-0.9636,0,0,0,0,0,-0.9912,-0.9899,-0.9865,-0.986,-0.985,-0.9819,-0.9808,-0.9789,-0.9765,-0.9755,-0.973,-0.9706,-0.9687,-0.9675,-0.9655,-0.9646,-0.9636,-0.9644,-0.9648,-0.9651,-0.965,-0.9643,-0.9645,-0.9617,-0.9617,-0.9617,0,0,-0.9926,-0.9903,-0.9897,-0.9867,-0.9848,-0.9835,-0.9811,-0.9798,-0.9787,-0.9753,-0.9736,-0.9717,-0.9688,-0.9675,-0.9668,-0.9659,-0.9656,-0.9652,-0.9655,-0.9652,-0.9644,-0.9647,-0.9649,-0.9618,-0.9618,-0.9617,0,0,-0.9945,-0.9927,-0.9921,-0.9903,-0.9876,-0.9855,-0.9853,-0.982,-0.9806,-0.979,-0.9764,-0.975,-0.9718,-0.9698,-0.9684,-0.9696,-0.9676,-0.9691,-0.9707,-0.97,-0.9703,-0.9704,-0.9707,-0.9709,-0.9691,-0.9691,-0.9691,0,-0.9966,-0.9946,-0.9919,-0.9908,-0.9895,-0.9865,-0.9858,-0.9841,-0.9808,-0.9799,-0.979,-0.975,-0.9728,-0.971,-0.9713,-0.9703,-0.9699,-0.9694,-0.9705,-0.9706,-0.9708,-0.971,-0.9711,-0.9693,-0.9693,-0.9692,-0.9692,0,-0.9972,-0.9959,-0.9957,-0.9928,-0.9915,-0.9905,-0.9876,-0.9865,-0.9848,-0.9827,-0.981,-0.9783,-0.9758,-0.9752,-0.9734,-0.9731,-0.9726,-0.9712,-0.9695,-0.9713,-0.9714,-0.9715,-0.9695,-0.9695,-0.9694,-0.9694,0,0,-1.0011,-0.9968,-0.9968,-0.9954,-0.9922,-0.991,-0.9899,-0.9876,-0.9867,-0.9845,-0.9834,-0.9808,-0.9795,-0.9779,-0.9758,-0.9752,-0.9762,-0.9738,-0.9737,-0.9742,-0.9755,-0.9766,-0.9767,-0.9749,-0.9749,-0.9749,-0.9757,0,-1.0024,-1.0004,-0.998,-0.9968,-0.9954,-0.9926,-0.9916,-0.9895,-0.9876,-0.986,-0.9838,-0.982,-0.9804,-0.9794,-0.9787,-0.9763,-0.9764,-0.9762,-0.9736,-0.9736,-0.9743,-0.9768,-0.9779,-0.9788,-0.9758,-0.9758,-0.9758,0,-1.0036,-1.0018,-1.0005,-0.9974,-0.9967,-0.9959,-0.9935,-0.9922,-0.9896,-0.9882,-0.9865,-0.9843,-0.9828,-0.9815,-0.9793,-0.9792,-0.978,-0.9766,-0.9766,-0.9761,-0.9747,-0.9763,-0.979,-0.9791,-0.9759,-0.9759,-0.9759,0,-1.0065,-1.0036,-1.0025,-1.0014,-0.9978,-0.9973,-0.9957,-0.9931,-0.9919,-0.9898,-0.9889,-0.9866,-0.9853,-0.9834,-0.9806,-0.98,-0.9787,-0.9771,-0.9773,-0.9774,-0.977,-0.977,-0.9795,-0.9765,-0.9765,-0.9765,-0.9765,0,-1.0081,-1.0073,-1.0037,-1.003,-1.002,-0.9992,-0.9983,-0.9965,-0.9942,-0.9929,-0.9903,-0.9892,-0.9856,-0.984,-0.9818,-0.9802,-0.9796,-0.9783,-0.9777,-0.9785,-0.9786,-0.9776,-0.9774,-0.9766,-0.9766,-0.9765,-0.9765,0,-1.011,-1.0086,-1.0071,-1.0039,-1.003,-1.0025,-0.9996,-0.9987,-0.9967,-0.9951,-0.9946,-0.9913,-0.9892,-0.9863,-0.9833,-0.9818,-0.9805,-0.9796,-0.9814,-0.981,-0.9813,-0.9813,-0.983,-0.983,-0.9802,-0.9803,-0.9803,0,-1.0121,-1.0115,-1.0083,-1.0073,-1.0059,-1.0044,-1.0032,-1.0004,-0.9991,-0.9962,-0.9956,-0.9934,-0.9915,-0.9883,-0.9855,-0.9831,-0.9821,-0.9829,-0.9817,-0.9825,-0.9819,-0.9819,-0.9818,-0.9831,-0.9831,-0.9832,-0.9832,0,-1.0143,-1.0132,-1.0116,-1.0095,-1.0082,-1.0064,-1.0045,-1.0038,-1.0005,-0.9993,-0.9972,-0.9957,-0.9928,-0.9905,-0.9878,-0.986,-0.984,-0.9836,-0.9835,-0.9842,-0.9852,-0.9845,-0.982,-0.9835,-0.9835,-0.9835,-0.9835,-0.9834,-1.0162,-1.0156,-1.0132,-1.0115,-1.0098,-1.0081,-1.0071,-1.005,-1.0033,-1.0008,-0.9992,-0.9972,-0.9946,-0.9908,-0.9891,-0.9873,-0.9865,-0.9864,-0.9863,-0.9863,-0.9865,-0.9856,-0.9868,-0.9868,-0.9868,-0.9868,-0.9868,0,-1.0182,-1.0166,-1.0151,-1.0125,-1.0112,-1.0097,-1.0075,-1.0063,-1.0047,-1.0025,-1.0007,-0.9983,-0.9961,-0.9933,-0.9908,-0.99,-0.989,-0.9894,-0.9894,-0.9889,-0.9874,-0.9877,-0.9902,-0.9902,-0.9902,-0.9902,-0.9902,-0.9902,-1.019,-1.0178,-1.0164,-1.0142,-1.0125,-1.0107,-1.0095,-1.0079,-1.0061,-1.0037,-1.0019,-1.0001,-0.9976,-0.995,-0.9929,-0.9921,-0.9912,-0.9919,-0.9908,-0.9894,-0.9891,-0.9888,-0.989,-0.9918,-0.9918,-0.9924,-0.9924,-0.9924]},{"header":{"parameterUnit":"m.s-1","parameterCategory":1,"la1":30.2991,"la2":30.254,"lo1":-89.0895,"lo2":-89.0444,"dy":0.0017,"dx":0.0017,"nx":28,"ny":28,"refTime":"2024-06-25T09:00:00:Z","depth":0,"parameterNumber":3,"parameterNumberName":"V-component_of_WINDS"},"data":[0,0,0,0,0,0,0,0,0,0,0,0,0,0,0,0,0,0,0,0,0,0,0,0,0,0,0,0,0,0,0,0,0,0,0,0,0,0,0,0,0,0,0,0,0,0,0,0,0,0,0,0,0,0,0,0,0,0,0.2742,0.2741,0,0.2624,0.2623,0.2621,0.2518,0.2517,0.2516,0.2514,0.2393,0.2391,0.2389,0,0,0,0,0,0,0,0,0,0,0,0,0,0.2877,0.2875,0.2742,0.2741,0.2739,0.2624,0.2623,0.2621,0.2518,0.2517,0.2515,0.2514,0.2393,0.2391,0.2388,0,0,0,0,0,0,0,0,0,0,0,0,0,0.2795,0.2874,0.2742,0.2674,0.2667,0.2625,0.2623,0.2621,0.2518,0.2517,0.2515,0.2513,0.2394,0.2391,0.2388,0.2404,0,0,0.2378,0.2377,0,0,0,0,0,0,0,0,0.2799,0.279,0.2686,0.2679,0.267,0.2584,0.2625,0.2548,0.2519,0.2575,0.2514,0.2512,0.2458,0.2449,0.2431,0.2398,0.2393,0.2378,0.2376,0.2375,0.2374,0,0,0,0,0,0,0,0.2805,0.2794,0.2695,0.2684,0.2675,0.2649,0.2635,0.261,0.2528,0.257,0.2562,0.2549,0.2453,0.2434,0.2427,0.2391,0.2378,0.2375,0.2373,0.2372,0.2364,0.2366,0,0,0,0,0,0,0.2822,0.28,0.2699,0.2692,0.2732,0.2648,0.2632,0.2613,0.2528,0.2513,0.2551,0.2545,0.2441,0.2431,0.2423,0.2435,0.2375,0.2372,0.237,0.2362,0.2364,0.2366,0,0,0,0,0,0,0.2825,0.2814,0.2704,0.2744,0.2728,0.2647,0.2627,0.2612,0.2593,0.2513,0.2498,0.2547,0.2439,0.2427,0.2409,0.2429,0.237,0.2367,0.236,0.2363,0.2365,0.2461,0,0,0,0,0,0,0.2829,0.2815,0.2821,0.2744,0.2726,0.2693,0.2628,0.2611,0.2588,0.2579,0.2506,0.2492,0.2437,0.2414,0.2406,0.2424,0.2365,0.2358,0.2361,0.2364,0.2455,0.2466,0.2475,0,0,0,0,0,0.2834,0.2853,0.2822,0.281,0.2731,0.2695,0.2684,0.262,0.259,0.2595,0.2543,0.2494,0.2428,0.2413,0.2403,0.242,0.2356,0.236,0.2364,0.2451,0.2464,0.2475,0,0,0,0,0,0,0.2934,0.2841,0.2806,0.28,0.2756,0.2677,0.2681,0.2636,0.2599,0.2593,0.2515,0.2499,0.249,0.2453,0.2438,0.243,0.2386,0.2388,0.2455,0.2467,0.2477,0.2486,0.2362,0,0,0,0,0,0.2955,0.2933,0.2853,0.2856,0.2835,0.2763,0.2744,0.2699,0.265,0.263,0.2578,0.2532,0.25,0.2481,0.2448,0.2449,0.2431,0.2456,0.2466,0.2474,0.2477,0.2475,0.2485,0.2379,0.2379,0.2379,0,0,0.2998,0.2945,0.2936,0.2874,0.2835,0.2814,0.2747,0.2728,0.2711,0.2627,0.2607,0.2567,0.251,0.2502,0.2495,0.247,0.2502,0.2479,0.2487,0.2485,0.248,0.249,0.2499,0.2381,0.2381,0.2381,0,0,0.3067,0.3025,0.3022,0.2984,0.2925,0.2876,0.2875,0.2803,0.2773,0.2751,0.2688,0.2666,0.2614,0.2576,0.255,0.2604,0.2557,0.2595,0.2648,0.2646,0.2655,0.2662,0.2681,0.2689,0.2598,0.2598,0.2598,0,0.3129,0.3095,0.3026,0.3011,0.2985,0.2908,0.2904,0.287,0.2803,0.2787,0.276,0.2693,0.2649,0.2631,0.2644,0.2625,0.2622,0.2604,0.2659,0.2665,0.2671,0.2688,0.2696,0.2603,0.2603,0.2602,0.2602,0,0.3174,0.3151,0.3156,0.3093,0.3068,0.3059,0.2988,0.297,0.2927,0.2881,0.286,0.2804,0.2759,0.2751,0.2708,0.2726,0.2713,0.2674,0.2627,0.2687,0.2702,0.2709,0.2611,0.2609,0.2607,0.2606,0,0,0.3303,0.3202,0.3205,0.3175,0.3104,0.3085,0.3071,0.3027,0.3013,0.2969,0.2956,0.2913,0.2877,0.2847,0.2799,0.2798,0.2844,0.2759,0.2756,0.2777,0.286,0.2891,0.2899,0.2812,0.2813,0.2814,0.2865,0,0.336,0.3332,0.327,0.3261,0.3239,0.3165,0.3153,0.3108,0.3064,0.3038,0.2989,0.2961,0.2914,0.2896,0.2891,0.284,0.286,0.2835,0.2799,0.2798,0.2816,0.2907,0.2939,0.299,0.287,0.2871,0.2872,0,0.3424,0.3385,0.3374,0.3304,0.3292,0.3283,0.3236,0.3213,0.3159,0.3128,0.3095,0.3042,0.3023,0.298,0.2953,0.2937,0.2918,0.2891,0.2891,0.2886,0.284,0.2905,0.3005,0.3013,0.2881,0.288,0.2879,0,0.352,0.3464,0.345,0.3427,0.3345,0.334,0.3305,0.325,0.3227,0.3186,0.317,0.3128,0.3105,0.3073,0.301,0.2985,0.299,0.2941,0.2963,0.2965,0.2968,0.2969,0.3067,0.2956,0.2955,0.2955,0.2955,0,0.3591,0.3587,0.3492,0.3484,0.3478,0.3405,0.3401,0.3359,0.331,0.3292,0.3225,0.3209,0.3127,0.3101,0.3052,0.3037,0.3027,0.3,0.2987,0.3007,0.301,0.2994,0.2989,0.2957,0.2957,0.2956,0.2956,0,0.3697,0.3633,0.3614,0.3537,0.3517,0.3516,0.345,0.3439,0.339,0.3368,0.3359,0.3283,0.325,0.3184,0.3132,0.3098,0.3095,0.3071,0.3113,0.3105,0.3131,0.3129,0.3222,0.3231,0.3114,0.3115,0.3116,0,0.3747,0.3743,0.3665,0.3648,0.3616,0.359,0.3566,0.3494,0.3472,0.3411,0.3407,0.3368,0.3333,0.3283,0.3224,0.3183,0.3159,0.3194,0.3152,0.3172,0.316,0.3161,0.316,0.3204,0.3206,0.3207,0.3208,0,0.3843,0.3811,0.378,0.3737,0.3711,0.3674,0.3633,0.3623,0.3541,0.3519,0.3485,0.3458,0.3405,0.3367,0.3318,0.3281,0.3231,0.3222,0.3224,0.3245,0.3269,0.3257,0.3139,0.322,0.3219,0.3218,0.3217,0.3217,0.3922,0.3915,0.3859,0.3826,0.3788,0.3751,0.3737,0.3687,0.3657,0.3608,0.3567,0.3536,0.3482,0.3411,0.3377,0.3351,0.3327,0.3331,0.3332,0.3335,0.3343,0.3273,0.3342,0.3341,0.3341,0.334,0.334,0,0.4015,0.3975,0.3945,0.3891,0.3865,0.382,0.3772,0.3753,0.3726,0.368,0.3647,0.3607,0.357,0.3507,0.3465,0.3456,0.3432,0.3448,0.3448,0.344,0.3367,0.3369,0.3468,0.3468,0.3468,0.3468,0.3468,0.3468,0.406,0.4045,0.4007,0.3972,0.3932,0.3901,0.3878,0.3843,0.3806,0.3764,0.3733,0.3692,0.3639,0.3592,0.3556,0.3538,0.3526,0.3549,0.3525,0.3457,0.3445,0.3434,0.3435,0.3547,0.3547,0.36,0.36,0.3601]}]]